Flag for U.S.A. Weather past 2 weeks in Lexington-Fayette, Kentucky, U.S.A.

Now
28 °F

Light snow. Ice fog.


Feels Like: 17 °F
Forecast: 14 / 31 °F
Wind: 14 mph from North

Location: Blue Grass Airport

Current Time: Mar 4, 2015 at 10:32:03 PM

Latest Report: Mar 4, 2015 at 9:54 PM


Visibility: 1 mi

Pressure: 30.14 "Hg

Humidity: 96%

Dew point: 27 °F

Location of Lexington-FayetteLocation

Historic Weather in Lexington-Fayette — Graph

°F

Lexington-Fayette temperature yesterday

Maximum temperature yesterday: 60 °F (at 4:54 PM)
Minimum temperature yesterday: 27 °F (at 12:54 AM)
Average temperature yesterday: 45 °F

Past Weeks' High & Low Weather Summary

 TemperatureHumidityPressure
High60 °F (Mar 3, 4:54 PM)100% (Feb 21, 8:54 PM)30.72 "Hg (Feb 21, 8:54 PM)
Low-13 °F (Feb 20, 4:54 AM)41% (Feb 20, 4:54 PM)29.82 "Hg (Feb 18, 6:54 AM)
Average24 °F72%30.24 "Hg
* Reported Feb 17 8:54 PM — Mar 4 8:54 PM, Lexington-Fayette, Weather by CustomWeather, © 2015

Note: Actual official high and low records may vary slightly from our data, if they occured in-between our weather recording intervals... More about our weather records

Advertising

Lexington-Fayette weather history for previous 24 hours

 ConditionsComfort  
Time TempWeatherWind HumidityBarometerVisibility
8:54 PM
Wed, Mar 4
29 °FSnow. Ice fog.10 mph96%30.13 "Hg1 mi
7:54 PM31 °FLight snow. Ice fog.10 mph96%30.12 "Hg1 mi
6:54 PM32 °FLight snow. Ice fog.17 mph92%30.07 "Hg1 mi
5:54 PM33 °FRain. Fog.9 mph96%30.02 "Hg2 mi
4:54 PM34 °FLight rain. Fog.12 mph97%30.02 "Hg3 mi
3:54 PM35 °FRain. Fog.8 mph92%29.98 "Hg5 mi
2:54 PM36 °FLight rain. Fog.14 mph92%29.97 "Hg6 mi
1:54 PM38 °FLight rain. Mostly cloudy.9 mph93%29.98 "Hg10 mi
12:54 PM39 °FLight rain. Mostly cloudy.10 mph93%29.98 "Hg7 mi
11:54 AM39 °FRain. Fog.9 mph93%29.98 "Hg5 mi
10:54 AM40 °FLight rain. Fog.8 mph97%29.96 "Hg6 mi
9:54 AM41 °FLight rain. Fog.10 mph93%29.96 "Hg5 mi
8:54 AM41 °FRain. Fog.9 mph96%29.93 "Hg3 mi
7:54 AM41 °FRain. Fog.5 mph100%29.90 "Hg2 mi
6:54 AM41 °FHeavy rain. Fog.No wind96%29.93 "Hg2 mi
5:54 AM41 °FRain. Fog.No wind100%29.91 "Hg2 mi
5:02 AM41 °FRain. Fog.No wind100%29.90 "Hg2 mi
4:54 AM42 °FHeavy rain. Fog.No wind96%29.90 "Hg2 mi
3:54 AM42 °FRain. Fog.7 mph96%29.90 "Hg3 mi
3:01 AM43 °FLow clouds.8 mph97%29.87 "Hg10 mi
1:54 AM44 °FLight rain. Fog.10 mph96%29.90 "Hg5 mi
12:54 AM48 °FRain. Fog.8 mph96%29.87 "Hg3 mi
11:58 PM
Tue, Mar 3
50 °FHeavy rain. Fog.5 mph96%29.86 "Hg3 mi
10:54 PM51 °FMostly cloudy.9 mph96%29.87 "Hg10 mi
Weather by CustomWeather, © 2015

See weather overviewHow to use our weather pages